星链-11188 (STARLINK-11188)

导读 | 星芒AI

STARLINK-11188 是 SpaceX Starlink 卫星互联网项目中的一颗低轨卫星,属于第5批部署的星链卫星之一。该卫星于2020年5月23日由猎鹰9号火箭从肯尼迪航天中心发射升空,运行在约550公里高度的近地轨道上。它与其他Starlink卫星共同构建全球宽带网络,提供高速互联网服务,尤其服务于偏远地区。该卫星采用先进推进系统和激光通信技术,具备自动避障功能,有助于减少太空碎片风险。

基本信息
目录编号:
60722
目录名称:
STARLINK-11188
国际标识:
2024-152C
轨道中心:
EARTH
卫星名称:
星链-11188 (STARLINK-11188)
卫星全名:
星链-11188 (STARLINK-11188)
卫星状态:
在轨 (已飞行474 天)
发射日期:
2024-08-28 UTC
国别 :
美国 (US)
星等 :
--
轨道信息
数据来源 国际轨道数据
星历时间: 2025-12-15T06:54:16+0800
20小时前
查看轨道信息
半长轴: 6737.83km
偏心率: 0.0001132
轨道倾角: 53.158°
近地点辐角 42.639°
升交点赤经 174.177°
平近点角 317.472°
近地点: 358.932km
远地点: 360.458km
周期: 91.736分钟
每日圈数: 15.69722
详细信息
卫星平台:
Starlink v2.0 mini
运营商:
太空探索技术公司
运营商所在国:
美国
制造商(研发单位):
太空探索技术公司
制造商所在国:
美国
使用方式:
暂无
卫星简介
星链(Starlink)计划是由太空探索技术公司(SpaceX)提出的一个巨型低轨卫星互联网星座项目,计划在2019年至2024年间在太空搭建由约1.2万颗卫星组成的“星链”网络,其中1584颗将部署在地球上空550千米处的近地轨道,并从2020年开始工作。该卫星仍在工作。
2D轨道图
3D轨道图
轨道高度分析图
轨道倾角分析图
轨道综合分析图
查看轨道综合分析图